TimeMDT,TemperatureF,Dew PointF,Humidity,Sea Level PressureIn,VisibilityMPH,Wind Direction,Wind SpeedMPH,Gust SpeedMPH,PrecipitationIn,Events,Conditions,WindDirDegrees,DateUTC
12:54 AM,39.9,37.9,93,29.92,10.0,SW,4.6,-,N/A,,Overcast,220,2012-11-02 06:54:00
1:54 AM,41.0,37.9,89,29.92,10.0,SW,8.1,-,N/A,,Overcast,230,2012-11-02 07:54:00
2:54 AM,39.9,34.0,79,29.94,10.0,WNW,4.6,-,N/A,,Overcast,300,2012-11-02 08:54:00
3:54 AM,39.0,35.1,86,29.94,10.0,West,4.6,-,N/A,,Overcast,270,2012-11-02 09:54:00
4:54 AM,37.9,34.0,86,29.96,10.0,SW,9.2,-,N/A,,Mostly Cloudy,230,2012-11-02 10:54:00
5:54 AM,37.0,32.0,82,29.98,10.0,WSW,11.5,-,N/A,,Clear,240,2012-11-02 11:54:00
6:54 AM,34.0,30.9,89,30.01,10.0,WSW,6.9,-,N/A,,Scattered Clouds,250,2012-11-02 12:54:00
7:54 AM,36.0,30.9,82,30.04,10.0,WNW,3.5,-,N/A,,Overcast,300,2012-11-02 13:54:00
8:54 AM,37.9,33.1,83,30.07,10.0,WNW,5.8,-,N/A,,Overcast,290,2012-11-02 14:54:00
9:54 AM,37.9,34.0,86,30.09,10.0,West,9.2,-,N/A,,Overcast,260,2012-11-02 15:54:00
10:54 AM,41.0,36.0,82,30.10,10.0,WSW,10.4,-,N/A,,Overcast,250,2012-11-02 16:54:00
11:54 AM,45.0,36.0,71,30.10,10.0,West,12.7,-,N/A,,Overcast,280,2012-11-02 17:54:00
12:54 PM,45.0,36.0,71,30.10,10.0,West,8.1,-,N/A,,Overcast,280,2012-11-02 18:54:00
1:54 PM,46.9,35.1,63,30.09,10.0,WNW,10.4,-,N/A,,Overcast,300,2012-11-02 19:54:00
2:54 PM,48.9,34.0,56,30.08,10.0,NW,9.2,-,N/A,,Scattered Clouds,310,2012-11-02 20:54:00
3:54 PM,48.9,35.1,59,30.09,10.0,WNW,8.1,-,N/A,,Clear,300,2012-11-02 21:54:00
4:54 PM,48.0,33.1,56,30.09,10.0,WNW,3.5,-,N/A,,Overcast,290,2012-11-02 22:54:00
5:54 PM,44.1,35.1,71,30.12,10.0,Calm,Calm,-,N/A,,Mostly Cloudy,0,2012-11-02 23:54:00
6:54 PM,43.0,36.0,76,30.14,10.0,South,4.6,-,N/A,,Overcast,190,2012-11-03 00:54:00
7:54 PM,42.1,36.0,79,30.15,10.0,South,3.5,-,N/A,,Overcast,170,2012-11-03 01:54:00
8:54 PM,41.0,36.0,82,30.14,10.0,SE,3.5,-,N/A,,Overcast,130,2012-11-03 02:54:00
9:54 PM,39.0,34.0,82,30.15,10.0,SE,3.5,-,N/A,,Overcast,130,2012-11-03 03:54:00
10:54 PM,36.0,30.9,82,30.15,10.0,SW,8.1,-,N/A,,Clear,230,2012-11-03 04:54:00
11:54 PM,32.0,28.9,88,30.14,10.0,South,4.6,-,N/A,,Clear,170,2012-11-03 05:54:00